World > North America > United States > Nevada
Hourly Weather in Black Rock Desert Wilderness, NevadaBlack Rock Desert Wilderness, Nevada Hourly Weather

Black Rock Desert Wilderness, NV Hourly Weather

Hourly Weather Black Rock Desert Wilderness, NevadaHourly Weather in Black Rock Desert Wilderness, NV
Lat: 41.22N, Lon: 118.75W  ICAO: KWMC
Web Search

If you are on your PC, you can easily pass this page to your phone by scanning the QR Code near the bottom with your camera.

Feedback

Black Rock Desert Wilderness Hourly Weather

36 Hour Weather Scroll   °F Click to change Black Rock Desert Wilderness hourly weather to Imperial units.Click to change Black Rock Desert Wilderness hourly weather to Metric units. °C
Currently, Light Rain, temperature is 53°F12°C, dew point 50°F10°C, humidity 89%. Wind direction is S at 14 mph23 km/h with visibility of 6.00 mi10 km. Barometric pressure is 29.5 in999 mb.

Oct 24
6:00 PM

Oct 24
7:00 PM

Oct 24
8:00 PM

Oct 24
9:00 PM

Oct 24
10:00 PM

Oct 24
11:00 PM

Oct 25
MIDNIGHT

Oct 25
1:00 AM

Oct 25
2:00 AM

Oct 25
3:00 AM

Oct 25
4:00 AM

Oct 25
5:00 AM

Oct 25
6:00 AM

Oct 25
7:00 AM

Oct 25
8:00 AM

Oct 25
9:00 AM

Oct 25
10:00 AM

Oct 25
11:00 AM

Oct 25
NOON

Oct 25
1:00 PM

Oct 25
2:00 PM

Oct 25
3:00 PM

Oct 25
4:00 PM

Oct 25
5:00 PM

Oct 25
6:00 PM

Oct 25
7:00 PM

Oct 25
8:00 PM

Oct 25
9:00 PM

Oct 25
10:00 PM

Oct 25
11:00 PM

Oct 26
MIDNIGHT

Oct 26
1:00 AM

Oct 26
5:00 AM

Oct 26
6:00 AM

Oct 26
7:00 AM

Oct 26
11:00 AM
Cloudy Partly Cloudy Partly Cloudy Partly Cloudy Partly Cloudy Partly Cloudy Partly Cloudy Mostly Cloudy Mostly Cloudy Mostly Cloudy Cloudy Cloudy Cloudy Cloudy Cloudy Cloudy Mostly Cloudy Mostly Cloudy Mostly Cloudy Mostly Cloudy Mostly Cloudy Mostly Cloudy Cloudy Cloudy Cloudy Cloudy Cloudy Cloudy Cloudy Cloudy Cloudy Cloudy Cloudy Cloudy Cloudy Cloudy
Cloudy Partly Cloudy Partly Cloudy Partly Cloudy Partly Cloudy Partly Cloudy Partly Cloudy Mostly Cloudy Mostly Cloudy Mostly Cloudy Cloudy Cloudy Cloudy Cloudy Cloudy Cloudy Mostly Cloudy Mostly Cloudy Mostly Cloudy Mostly Cloudy Mostly Cloudy Mostly Cloudy Cloudy Cloudy Cloudy Cloudy Cloudy Cloudy Cloudy Cloudy Cloudy Cloudy Cloudy Cloudy Cloudy Cloudy
44°F7°C 42°F6°C 41°F5°C 40°F4°C 39°F4°C 38°F3°C 38°F3°C 37°F3°C 37°F3°C 37°F3°C 36°F2°C 36°F2°C 36°F2°C 36°F2°C 36°F2°C 39°F4°C 42°F6°C 45°F7°C 47°F8°C 48°F9°C 50°F10°C 50°F10°C 49°F9°C 49°F9°C 48°F9°C 46°F8°C 45°F7°C 45°F7°C 45°F7°C 45°F7°C 44°F7°C 44°F7°C 43°F6°C 46°F8°C 49°F9°C 52°F11°C
- - - - - - - - - - - - - - - - - - - - - - - - - - - - - - - - - - - -
19% 19% 19% 19% 19% 19% 0% 0% 0% 0% 0% 0% 1% 1% 1% 1% 1% 1% 2% 2% 2% 2% 2% 2% 1% 1% 1% 1% 1% 1% 7% 7% 7% 8% 8% 8%
36°F2°C 35°F2°C 34°F1°C 33°F1°C 33°F1°C 32°F0°C 31°F-1°C 31°F-1°C 30°F-1°C 30°F-1°C 30°F-1°C 30°F-1°C 30°F-1°C 31°F-1°C 31°F-1°C 32°F0°C 32°F0°C 33°F1°C 33°F1°C 32°F0°C 32°F0°C 32°F0°C 32°F0°C 32°F0°C 31°F-1°C 31°F-1°C 30°F-1°C 29°F-2°C 29°F-2°C 28°F-2°C 29°F-2°C 29°F-2°C 30°F-1°C 32°F0°C 35°F2°C 37°F3°C
73% 76% 76% 76% 79% 79% 76% 79% 76% 76% 79% 79% 79% 82% 82% 76% 67% 63% 58% 54% 50% 50% 52% 52% 52% 56% 55% 53% 53% 51% 55% 55% 60% 58% 58% 56%
SSW W W SSW SSW SSW SW SW SW SW SW SW SW SSE S SSE SW SW SW SW SW SW SW SW SW SW SW SW SW SSE SSE S S S S S
9 mph 6 mph 6 mph 6 mph 6 mph 6 mph 6 mph 4 mph 4 mph 4 mph 6 mph 6 mph 6 mph 6 mph 6 mph 6 mph 10 mph 10 mph 10 mph 9 mph 9 mph 9 mph 10 mph 10 mph 10 mph 7 mph 7 mph 7 mph 11 mph 11 mph 11 mph 8 mph 8 mph 8 mph 7 mph 7 mph
10 mi16 km 10 mi16 km 10 mi16 km 10 mi16 km 10 mi16 km 10 mi16 km 10 mi16 km 10 mi16 km 10 mi16 km 10 mi16 km 10 mi16 km 10 mi16 km 10 mi16 km 10 mi16 km 10 mi16 km 10 mi16 km 10 mi16 km 10 mi16 km 10 mi16 km 10 mi16 km 10 mi16 km 10 mi16 km 10 mi16 km 10 mi16 km 10 mi16 km 10 mi16 km 10 mi16 km 10 mi16 km 10 mi16 km 10 mi16 km 10 mi16 km 10 mi16 km 10 mi16 km 10 mi16 km 10 mi16 km 10 mi16 km
Hour (PDT)
Weather
Clouds
Temperature
Precip. Type
POP
Dewpoint
Humidity
Wind Direction
Wind Speed
Visibility
POP = Probability of Precipitation. ** Indicates missing data/values from model statistics.

24 Hour Forecast

Tonight - Windy, rain. Lows 28 to 38. South winds 20 to 30 mph. Gusts up to 50 mph Decreasing to 40 mph after midnight.
Monday - Mostly cloudy. Rain with snow likely in the morning, then chance of rain and snow in the afternoon. Snow accumulation up to 1 inch. Snow level at Or above 6000 feet. Highs 46 to 56. Southwest winds 10 to 15 mph.

48 Hour Forecast API Feed


Sun, Oct 24
6:00 pm

Sun, Oct 24
7:00 pm

Sun, Oct 24
8:00 pm

Sun, Oct 24
9:00 pm

Sun, Oct 24
10:00 pm

Sun, Oct 24
11:00 pm

Mon, Oct 25
Midnight

Mon, Oct 25
1:00 am

Mon, Oct 25
2:00 am

Mon, Oct 25
3:00 am

Mon, Oct 25
4:00 am

Mon, Oct 25
5:00 am

Mon, Oct 25
6:00 am

Mon, Oct 25
7:00 am

Mon, Oct 25
8:00 am

Mon, Oct 25
9:00 am

Mon, Oct 25
10:00 am

Mon, Oct 25
11:00 am

Mon, Oct 25
Noon

Mon, Oct 25
1:00 pm

Mon, Oct 25
2:00 pm

Mon, Oct 25
3:00 pm

Mon, Oct 25
4:00 pm

Mon, Oct 25
5:00 pm

Mon, Oct 25
6:00 pm

Mon, Oct 25
7:00 pm

Mon, Oct 25
8:00 pm

Mon, Oct 25
9:00 pm

Mon, Oct 25
10:00 pm

Mon, Oct 25
11:00 pm

Tue, Oct 26
Midnight

Tue, Oct 26
1:00 am

Tue, Oct 26
2:00 am

Tue, Oct 26
3:00 am

Tue, Oct 26
4:00 am

Tue, Oct 26
5:00 am

Tue, Oct 26
6:00 am

Tue, Oct 26
7:00 am

Tue, Oct 26
8:00 am

Tue, Oct 26
9:00 am

Tue, Oct 26
10:00 am

Tue, Oct 26
11:00 am

Tue, Oct 26
Noon

Tue, Oct 26
1:00 pm

Tue, Oct 26
2:00 pm

Tue, Oct 26
3:00 pm

Tue, Oct 26
4:00 pm

Tue, Oct 26
5:00 pm
Patchy Light RainPatchy Light RainModerate Or Heavy SleetLight SleetPatchy Light RainModerate Or Heavy SleetLight SleetHeavy SnowHeavy SnowHeavy SnowHeavy SnowHeavy SnowHeavy SnowHeavy SnowHeavy SnowModerate Or Heavy Snow ShowersModerate Or Heavy Snow ShowersPatchy Heavy SnowSunnyPartly CloudyPartly CloudyPartly CloudySunnySunnyClearClearClearClearClearPartly CloudyPartly CloudyPartly CloudyPartly CloudyCloudyOvercastPatchy Light SnowPartly CloudyPartly CloudyLight SnowPartly CloudyPartly CloudyPatchy Light SnowPartly CloudyPatchy Light SnowPatchy Rain PossiblePartly CloudyPartly CloudyPatchy Sleet Possible
Patchy light rain Patchy light rain Moderate sleet Light sleet Patchy light rain Moderate sleet Light sleet Heavy snow Heavy snow Heavy snow Heavy snow Heavy snow Heavy snow Heavy snow Heavy snow Moderate snow showers Moderate snow showers Patchy heavy snow Sunny Partly cloudy Partly cloudy Partly cloudy Sunny Sunny Clear Clear Clear Clear Clear Partly cloudy Partly cloudy Partly cloudy Partly cloudy Cloudy Overcast Patchy light snow Partly cloudy Partly cloudy Light snow Partly cloudy Partly cloudy Patchy light snow Partly cloudy Patchy light snow Patchy rain possible Partly cloudy Partly cloudy Patchy sleet possible
43°F
6°C
43°F
6°C
42°F
6°C
42°F
5°C
43°F
6°C
41°F
5°C
40°F
5°C
39°F
4°C
38°F
3°C
38°F
4°C
38°F
3°C
38°F
4°C
38°F
4°C
38°F
3°C
37°F
3°C
36°F
2°C
35°F
2°C
38°F
3°C
41°F
5°C
42°F
5°C
42°F
5°C
40°F
5°C
40°F
4°C
38°F
4°C
36°F
2°C
35°F
2°C
35°F
2°C
35°F
2°C
35°F
2°C
34°F
1°C
34°F
1°C
33°F
1°C
33°F
1°C
34°F
1°C
34°F
1°C
35°F
2°C
36°F
2°C
36°F
2°C
33°F
1°C
34°F
1°C
35°F
2°C
37°F
3°C
37°F
3°C
37°F
3°C
39°F
4°C
40°F
4°C
40°F
5°C
40°F
4°C
41°F
5°C
38°F
3°C
38°F
3°C
37°F
3°C
37°F
3°C
37°F
3°C
37°F
3°C
37°F
3°C
36°F
2°C
37°F
3°C
37°F
3°C
37°F
3°C
37°F
3°C
37°F
3°C
35°F
2°C
34°F
1°C
32°F
0°C
30°F
-1°C
29°F
-2°C
27°F
-3°C
26°F
-3°C
25°F
-4°C
24°F
-5°C
23°F
-5°C
25°F
-4°C
25°F
-4°C
25°F
-4°C
25°F
-4°C
26°F
-4°C
26°F
-3°C
26°F
-3°C
26°F
-3°C
26°F
-3°C
27°F
-3°C
29°F
-2°C
30°F
-1°C
30°F
-1°C
30°F
-1°C
28°F
-2°C
27°F
-3°C
27°F
-3°C
27°F
-3°C
28°F
-2°C
30°F
-1°C
30°F
-1°C
31°F
-1°C
31°F
-1°C
31°F
-1°C
29.44 in
997 mb
29.5 in
999 mb
29.5 in
999 mb
29.53 in
1000 mb
29.53 in
1000 mb
29.56 in
1001 mb
29.53 in
1000 mb
29.53 in
1000 mb
29.53 in
1000 mb
29.53 in
1000 mb
29.5 in
999 mb
29.5 in
999 mb
29.5 in
999 mb
29.5 in
999 mb
29.5 in
999 mb
29.56 in
1001 mb
29.59 in
1002 mb
29.56 in
1001 mb
29.56 in
1001 mb
29.56 in
1001 mb
29.59 in
1002 mb
29.62 in
1003 mb
29.65 in
1004 mb
29.71 in
1006 mb
29.77 in
1008 mb
29.8 in
1009 mb
29.83 in
1010 mb
29.85 in
1011 mb
29.85 in
1011 mb
29.88 in
1012 mb
29.91 in
1013 mb
29.94 in
1014 mb
29.97 in
1015 mb
29.97 in
1015 mb
29.97 in
1015 mb
30 in
1016 mb
30 in
1016 mb
30.03 in
1017 mb
30.06 in
1018 mb
30.09 in
1019 mb
30.06 in
1018 mb
30.06 in
1018 mb
30.06 in
1018 mb
30.09 in
1019 mb
30.03 in
1017 mb
30.03 in
1017 mb
30.03 in
1017 mb
30.06 in
1018 mb
90%83%83%85%77%87%89%92%92%93%97%97%95%95%93%92%89%72%62%55%53%55%51%54%62%66%66%65%68%71%74%76%76%76%79%82%80%81%83%76%71%67%68%77%69%70%68%70%
SWSWSWSSWSSWSSWSSWSSWSSSSESSESSSSWWSWWWWWWWNWWNWWNWWNWWNWWNWWNWWNWWWWWWSWSSWSSWSWSWSSWSSWSWSWSWSWWSWWSWWSWWSW
15 mph
24 km/h
19 mph
31 km/h
20 mph
32 km/h
16 mph
26 km/h
20 mph
32 km/h
13 mph
21 km/h
10 mph
17 km/h
10 mph
16 km/h
10 mph
15 km/h
11 mph
18 km/h
9 mph
15 km/h
8 mph
13 km/h
9 mph
14 km/h
10 mph
16 km/h
6 mph
10 km/h
9 mph
15 km/h
3 mph
5 km/h
6 mph
10 km/h
9 mph
14 km/h
11 mph
17 km/h
15 mph
24 km/h
19 mph
30 km/h
16 mph
25 km/h
16 mph
26 km/h
11 mph
18 km/h
9 mph
14 km/h
8 mph
13 km/h
6 mph
9 km/h
5 mph
8 km/h
5 mph
8 km/h
4 mph
7 km/h
4 mph
7 km/h
5 mph
8 km/h
4 mph
6 km/h
6 mph
9 km/h
8 mph
12 km/h
6 mph
10 km/h
7 mph
11 km/h
7 mph
12 km/h
8 mph
13 km/h
8 mph
13 km/h
9 mph
14 km/h
9 mph
15 km/h
8 mph
13 km/h
10 mph
15 km/h
9 mph
15 km/h
9 mph
15 km/h
10 mph
15 km/h
96%95%95%95%94%94%94%93%93%75%76%92%77%78%54%90%62%72%0%0%0%0%0%0%0%0%0%0%0%0%0%0%0%0%0%0%0%0%0%0%0%0%0%0%53%0%0%70%
6 mi
9 km
6 mi
9 km
4 mi
6 km
6 mi
9 km
6 mi
9 km
4 mi
6 km
6 mi
9 km
1 mi
2 km
1 mi
2 km
1 mi
2 km
1 mi
2 km
1 mi
2 km
1 mi
2 km
1 mi
2 km
1 mi
2 km
4 mi
7 km
4 mi
7 km
3 mi
5 km
6 mi
10 km
6 mi
10 km
6 mi
10 km
6 mi
10 km
6 mi
10 km
6 mi
10 km
6 mi
10 km
6 mi
10 km
6 mi
10 km
6 mi
10 km
6 mi
10 km
6 mi
10 km
6 mi
10 km
6 mi
10 km
6 mi
10 km
6 mi
10 km
6 mi
10 km
6 mi
10 km
6 mi
10 km
6 mi
10 km
6 mi
10 km
6 mi
10 km
6 mi
10 km
6 mi
10 km
6 mi
10 km
6 mi
10 km
6 mi
10 km
6 mi
10 km
6 mi
10 km
6 mi
9 km

Day/Time
Weather
Condition
Temperature
Dew Point
Pressure
Humidity
Wind Direction
Wind Speed
Prob Precip %
Visibility
Prob Precip % = Probability of Precipitation.